When you browse on this site, cookies collect data to enhance your experience and personalize the content and advertising you see.
Visit our Privacy Policy to learn more. By continuing to use the site, you agree to this use of cookies and data.
  • In Latvia
  • List of Countries
  • For 7 days
  • Water Temperature
  • Weather Map
  • Weather Widgets
  • user-avatar
    Login

    Hourly Weather Albany

    Today, 14 December, Saturday

    Time Temperature Precipitation Wind Pressure Humidity
    00:00 +4°C° 1.2 mm 2 mps 759 mmHg 97%
    01:00 +4°C° 0 mm 1 mps 758 mmHg 96%
    02:00 +4°C° 1.1 mm 1 mps 756 mmHg 97%
    03:00 +3°C° 1.1 mm 2 mps 755 mmHg 97%
    04:00 +3°C° 1.1 mm 2 mps 753 mmHg 98%
    05:00 +4°C° 3.2 mm 2 mps 752 mmHg 98%
    06:00 +4°C° 3.2 mm 2 mps 750 mmHg 97%
    07:00 +5°C° 0 mm 1 mps 749 mmHg 97%
    08:00 +5°C° 0.5 mm 1 mps 748 mmHg 98%
    09:00 +5°C° 0.5 mm 1 mps 747 mmHg 98%
    10:00 +6°C° 0.5 mm 1 mps 746 mmHg 98%
    11:00 +6°C° 0 mm 1 mps 744 mmHg 98%
    12:00 +6°C° 0 mm 1 mps 743 mmHg 98%
    13:00 +7°C° 0 mm 1 mps 742 mmHg 98%
    14:00 +7°C° 0.9 mm 1 mps 741 mmHg 98%
    15:00 +7°C° 0.9 mm 1 mps 739 mmHg 98%
    16:00 +5°C° 0.9 mm 0 mps 738 mmHg 99%
    17:00 +7°C° 0.5 mm 1 mps 737 mmHg 98%
    18:00 +6°C° 0.5 mm 2 mps 737 mmHg 98%
    19:00 +7°C° 0.5 mm 3 mps 737 mmHg 98%
    20:00 +7°C° 0 mm 3 mps 738 mmHg 95%
    21:00 +5°C° 0 mm 4 mps 738 mmHg 92%
    22:00 +5°C° 0 mm 4 mps 739 mmHg 89%
    23:00 +4°C° 0 mm 4 mps 739 mmHg 87%

    Tomorrow, 15 December, Sunday

    Time Temperature Precipitation Wind Pressure Humidity
    00:00 +3°C° 0 mm 4 mps 740 mmHg 85%
    01:00 +3°C° 0 mm 4 mps 741 mmHg 84%
    02:00 +1°C° 0 mm 4 mps 742 mmHg 84%
    03:00 +1°C° 0 mm 4 mps 743 mmHg 85%
    04:00 +1°C° 0 mm 4 mps 743 mmHg 86%
    05:00 +1°C° 0 mm 4 mps 744 mmHg 83%
    06:00 0°C° 0 mm 4 mps 746 mmHg 81%
    07:00 0°C° 0 mm 4 mps 747 mmHg 78%
    08:00 0°C° 0 mm 4 mps 747 mmHg 74%
    09:00 +1°C° 0 mm 5 mps 748 mmHg 71%
    10:00 +1°C° 0 mm 6 mps 749 mmHg 67%
    11:00 +1°C° 0 mm 6 mps 750 mmHg 66%
    12:00 +1°C° 0 mm 6 mps 750 mmHg 65%
    13:00 +1°C° 0 mm 6 mps 751 mmHg 64%
    14:00 -1°C° 0 mm 6 mps 752 mmHg 64%
    15:00 -2°C° 0 mm 6 mps 753 mmHg 63%
    16:00 -3°C° 0 mm 6 mps 754 mmHg 63%
    17:00 -3°C° 0 mm 6 mps 755 mmHg 64%
    18:00 -4°C° 0 mm 6 mps 757 mmHg 65%
    19:00 -5°C° 0 mm 6 mps 758 mmHg 66%
    20:00 -5°C° 0 mm 5 mps 759 mmHg 66%
    21:00 -5°C° 0 mm 5 mps 760 mmHg 66%
    22:00 -6°C° 0 mm 5 mps 760 mmHg 67%
    23:00 -6°C° 0 mm 5 mps 761 mmHg 66%

    Day after tomorrow, 16 December, Monday

    Time Temperature Precipitation Wind Pressure Humidity
    00:00 -5°C° 0 mm 4 mps 762 mmHg 65%
    01:00 -5°C° 0 mm 4 mps 763 mmHg 65%
    02:00 -5°C° 0 mm 4 mps 763 mmHg 66%
    03:00 -5°C° 0 mm 3 mps 763 mmHg 68%
    04:00 -5°C° 0 mm 3 mps 763 mmHg 69%
    05:00 -5°C° 0 mm 3 mps 764 mmHg 70%
    06:00 -4°C° 0 mm 2 mps 765 mmHg 70%
    07:00 -4°C° 0 mm 2 mps 765 mmHg 71%
    08:00 -3°C° 0 mm 2 mps 765 mmHg 68%
    09:00 -3°C° 0 mm 2 mps 765 mmHg 65%
    10:00 -1°C° 0 mm 1 mps 765 mmHg 62%
    11:00 0°C° 0 mm 1 mps 765 mmHg 60%
    12:00 +1°C° 0 mm 1 mps 765 mmHg 58%
    13:00 0°C° 0 mm 0 mps 764 mmHg 56%
    14:00 0°C° 0 mm 0 mps 764 mmHg 59%
    15:00 0°C° 0 mm 0 mps 763 mmHg 61%
    16:00 0°C° 0 mm 1 mps 763 mmHg 64%
    17:00 0°C° 0 mm 1 mps 763 mmHg 65%
    18:00 0°C° 0 mm 1 mps 763 mmHg 65%
    19:00 0°C° 0 mm 1 mps 762 mmHg 66%
    20:00 0°C° 0 mm 1 mps 762 mmHg 67%
    21:00 0°C° 0 mm 1 mps 761 mmHg 68%
    22:00 -1°C° 0 mm 0 mps 761 mmHg 69%
    23:00 -1°C° 0.2 mm 0 mps 760 mmHg 75%

    17 December, Tuesday

    Time Temperature Precipitation Wind Pressure Humidity
    00:00 0°C° 0.2 mm 1 mps 760 mmHg 81%
    01:00 0°C° 0.2 mm 1 mps 759 mmHg 86%
    02:00 0°C° 0.9 mm 1 mps 758 mmHg 89%
    03:00 0°C° 0.9 mm 1 mps 757 mmHg 91%
    04:00 -2°C° 0.9 mm 2 mps 756 mmHg 94%
    05:00 -3°C° 1.1 mm 2 mps 755 mmHg 95%
    06:00 -3°C° 1.1 mm 2 mps 755 mmHg 95%
    07:00 -3°C° 1.1 mm 2 mps 754 mmHg 95%
    08:00 -3°C° 1.7 mm 2 mps 753 mmHg 95%
    09:00 -3°C° 1.7 mm 2 mps 753 mmHg 95%
    10:00 -3°C° 1.7 mm 2 mps 752 mmHg 95%
    11:00 -3°C° 0.4 mm 2 mps 752 mmHg 95%
    12:00 -3°C° 0.4 mm 2 mps 751 mmHg 94%
    13:00 -2°C° 0.4 mm 2 mps 750 mmHg 94%
    14:00 -2°C° 0.2 mm 3 mps 751 mmHg 94%
    15:00 -2°C° 0.2 mm 3 mps 751 mmHg 93%
    16:00 -2°C° 0.2 mm 3 mps 751 mmHg 93%
    17:00 -2°C° 0.1 mm 3 mps 752 mmHg 93%
    18:00 -4°C° 0.1 mm 3 mps 753 mmHg 93%
    19:00 -3°C° 0.1 mm 2 mps 754 mmHg 94%
    20:00 -4°C° 0 mm 2 mps 754 mmHg 93%
    21:00 -4°C° 0 mm 2 mps 754 mmHg 93%
    22:00 -5°C° 0 mm 2 mps 754 mmHg 92%
    23:00 -3°C° 0 mm 1 mps 754 mmHg 92%

    18 December, Wednesday

    Time Temperature Precipitation Wind Pressure Humidity
    00:00 -4°C° 0 mm 1 mps 754 mmHg 92%
    01:00 -4°C° 0 mm 1 mps 755 mmHg 92%
    02:00 -4°C° 0 mm 1 mps 755 mmHg 92%
    03:00 -4°C° 0 mm 1 mps 755 mmHg 92%
    04:00 -4°C° 0 mm 1 mps 755 mmHg 91%
    05:00 -6°C° 0 mm 1 mps 755 mmHg 91%
    06:00 -6°C° 0 mm 1 mps 755 mmHg 90%
    07:00 -6°C° 0 mm 1 mps 754 mmHg 90%
    08:00 -6°C° 0 mm 2 mps 754 mmHg 88%
    09:00 -5°C° 0 mm 2 mps 754 mmHg 86%
    10:00 -4°C° 0 mm 3 mps 754 mmHg 83%
    11:00 -4°C° 0.1 mm 3 mps 753 mmHg 78%
    12:00 -3°C° 0.1 mm 4 mps 753 mmHg 73%
    13:00 -4°C° 0.1 mm 5 mps 753 mmHg 68%
    14:00 -5°C° 0.1 mm 5 mps 753 mmHg 70%
    15:00 -7°C° 0.1 mm 5 mps 754 mmHg 71%
    16:00 -8°C° 0.1 mm 4 mps 754 mmHg 73%
    17:00 -9°C° 0.1 mm 4 mps 755 mmHg 75%
    18:00 -10°C° 0.1 mm 4 mps 756 mmHg 77%
    19:00 -11°C° 0.1 mm 4 mps 757 mmHg 79%
    20:00 -12°C° 0 mm 4 mps 757 mmHg 78%
    21:00 -14°C° 0 mm 5 mps 758 mmHg 76%
    22:00 -15°C° 0 mm 5 mps 759 mmHg 75%
    23:00 -15°C° 0 mm 5 mps 759 mmHg 76%

    19 December, Thursday

    Time Temperature Precipitation Wind Pressure Humidity
    00:00 -17°C° 0 mm 5 mps 760 mmHg 77%
    01:00 -16°C° 0 mm 4 mps 761 mmHg 78%
    02:00 -17°C° 0 mm 4 mps 762 mmHg 79%
    03:00 -17°C° 0 mm 4 mps 762 mmHg 80%
    04:00 -17°C° 0 mm 4 mps 763 mmHg 80%
    05:00 -17°C° 0 mm 4 mps 764 mmHg 80%
    06:00 -17°C° 0 mm 4 mps 764 mmHg 80%
    07:00 -17°C° 0 mm 4 mps 765 mmHg 80%
    08:00 -17°C° 0 mm 4 mps 765 mmHg 78%
    09:00 -16°C° 0 mm 4 mps 766 mmHg 76%
    10:00 -15°C° 0 mm 4 mps 766 mmHg 75%
    11:00 -14°C° 0 mm 4 mps 766 mmHg 74%
    12:00 -12°C° 0 mm 4 mps 765 mmHg 74%
    13:00 -10°C° 0 mm 3 mps 765 mmHg 74%
    14:00 -10°C° 0 mm 3 mps 765 mmHg 77%
    15:00 -10°C° 0 mm 3 mps 766 mmHg 80%
    16:00 -10°C° 0 mm 2 mps 766 mmHg 83%
    17:00 -10°C° 0 mm 2 mps 767 mmHg 84%
    18:00 -12°C° 0 mm 2 mps 767 mmHg 86%
    19:00 -12°C° 0 mm 2 mps 767 mmHg 88%
    20:00 -11°C° 0 mm 1 mps 768 mmHg 89%
    21:00 -11°C° 0 mm 1 mps 768 mmHg 90%
    22:00 -11°C° 0 mm 1 mps 768 mmHg 91%
    23:00 -12°C° 0 mm 1 mps 769 mmHg 91%
    Show more